Location: DARK SKY Beskydy - Park tmavé oblohy, www.darkskybeskydy.cz
(49.4926°N, 18.5016°E)
Time: 03:39:42
(UTC+01:00)

Envisat - Pass Details

Date: 02 December 2022
Orbit: 763 x 765 km, 98.2° (Epoch: 05 February)

Event Time Altitude Azimuth Distance (km) Brightness Sun altitude
Rises 04:16:04 0° 13° (NNE) 3,245 6.4 -29.2°
Reaches altitude 10° 04:18:23 10° 13° (NNE) 2,314 5.6 -28.8°
Enters shadow 04:21:10 33° 11° (N) 1,262 4.1 -28.4°
